Home   Weather   Tampa   Past weeks

Flag for USA Past Weather in Tampa, Florida, USA — Yesterday and Last 2 Weeks

Now
72 °F

Passing clouds.


Feels Like: 67 °F
Forecast: 69 / 93 °F
Wind: 5 mph from Southeast

Location: Tampa, Peter O Knight Airport

Current Time: Apr 27, 2017 at 7:08:06 am

Latest Report: Apr 27, 2017 at 6:35 am


Visibility: 10 mi

Pressure: 29.91 "Hg

Humidity: 94%

Dew Point: 70 °F

Location of TampaLocation

Past Weather in Tampa — Graph

°F

Tampa Temperature Yesterday

Maximum temperature yesterday: 86 °F (at 3:15 pm)
Minimum temperature yesterday: 72 °F (at 12:15 am)
Average temperature yesterday: 78 °F

High & Low Weather Summary for the Past Weeks

 TemperatureHumidityPressure
High91 °F (Apr 21, 4:15 pm)100% (Apr 27, 5:55 am)30.26 "Hg (Apr 27, 5:55 am)
Low63 °F (Apr 14, 6:55 am)26% (Apr 21, 5:15 pm)29.74 "Hg (Apr 24, 4:55 am)
Average77 °F63%30.02 "Hg
* Reported Apr 12 5:15 am — Apr 27 5:55 am, Tampa, Weather by CustomWeather, © 2017

Note: Actual official high and low records may vary slightly from our data, if they occured in-between our weather recording intervals... More about our weather records

Advertising

Tampa Weather History for the Previous 24 Hours

Scroll right to see more
 ConditionsComfort  
Time TempWeatherWind HumidityBarometerVisibility
5:55 am
Thu, Apr 27
72 °FOvercast.5 mph100%29.89 "Hg10 mi
5:35 am73 °FOvercast.6 mph94%29.89 "Hg10 mi
4:55 am73 °FOvercast.5 mph94%29.88 "Hg10 mi
4:35 am73 °FOvercast.3 mph94%29.88 "Hg10 mi
4:15 am72 °FPassing clouds.5 mph94%29.88 "Hg10 mi
3:35 am72 °FOvercast.3 mph94%29.88 "Hg10 mi
3:15 am73 °FOvercast.5 mph89%29.89 "Hg10 mi
2:55 am75 °FMostly cloudy.6 mph89%29.89 "Hg10 mi
2:35 am75 °FMostly cloudy.5 mph89%29.89 "Hg10 mi
2:15 am75 °FMostly cloudy.3 mph89%29.90 "Hg10 mi
1:35 am75 °FMostly cloudy.6 mph89%29.91 "Hg10 mi
1:15 am77 °FOvercast.6 mph83%29.91 "Hg10 mi
12:55 am77 °FOvercast.5 mph83%29.91 "Hg10 mi
12:35 am77 °FPassing clouds.No wind83%29.91 "Hg10 mi
12:15 am77 °FPassing clouds.5 mph83%29.91 "Hg10 mi
11:55 pm
Wed, Apr 26
77 °FOvercast.8 mph83%29.91 "Hg10 mi
11:35 pm77 °FOvercast.5 mph89%29.91 "Hg7 mi
10:55 pm79 °FOvercast.5 mph84%29.90 "Hg10 mi
10:35 pm77 °FOvercast.No wind83%29.90 "Hg10 mi
10:15 pm79 °FOvercast.No wind79%29.90 "Hg10 mi
9:35 pm79 °FPassing clouds.No wind79%29.89 "Hg10 mi
9:15 pm79 °FPassing clouds.No wind79%29.88 "Hg10 mi
8:55 pm79 °FPartly cloudy.No wind74%29.88 "Hg10 mi
8:15 pm79 °FPassing clouds.3 mph74%29.87 "Hg10 mi
7:55 pm81 °FScattered clouds.5 mph70%29.87 "Hg10 mi
7:35 pm81 °FScattered clouds.No wind66%29.86 "Hg10 mi
6:55 pm82 °FScattered clouds.5 mph58%29.86 "Hg10 mi
6:35 pm82 °FBroken clouds.6 mph58%29.86 "Hg10 mi
6:15 pm82 °FBroken clouds.7 mph55%29.86 "Hg10 mi
5:55 pm84 °FScattered clouds.7 mph48%29.85 "Hg10 mi
5:35 pm86 °FScattered clouds.7 mph46%29.85 "Hg10 mi
5:15 pm86 °FScattered clouds.12 mph49%29.85 "Hg10 mi
4:55 pm86 °FScattered clouds.9 mph46%29.85 "Hg10 mi
4:35 pm86 °FScattered clouds.10 mph46%29.85 "Hg10 mi
3:55 pm86 °FScattered clouds.8 mph49%29.86 "Hg10 mi
3:35 pm84 °FScattered clouds.9 mph48%29.86 "Hg10 mi
3:15 pm86 °FPartly sunny.10 mph46%29.87 "Hg10 mi
2:55 pm84 °FPartly sunny.8 mph48%29.88 "Hg10 mi
2:35 pm84 °FBroken clouds.9 mph48%29.89 "Hg10 mi
1:55 pm84 °FPartly sunny.10 mph45%29.90 "Hg10 mi
1:35 pm82 °FScattered clouds.10 mph48%29.91 "Hg10 mi
1:15 pm84 °FBroken clouds.12 mph43%29.91 "Hg10 mi
12:55 pm84 °FMostly cloudy.9 mph43%29.91 "Hg10 mi
12:35 pm82 °FMostly cloudy.3 mph45%29.91 "Hg10 mi
12:15 pm82 °FMore clouds than sun.5 mph45%29.91 "Hg10 mi
11:55 am81 °FOvercast.5 mph48%29.92 "Hg10 mi
11:15 am79 °FOvercast.5 mph51%29.92 "Hg10 mi
10:55 am79 °FOvercast.6 mph48%29.91 "Hg10 mi
10:35 am79 °FPartly sunny.8 mph51%29.91 "Hg10 mi
10:15 am79 °FBroken clouds.7 mph51%29.91 "Hg10 mi
9:55 am79 °FMore clouds than sun.7 mph51%29.91 "Hg10 mi
9:15 am77 °FBroken clouds.3 mph54%29.90 "Hg10 mi
8:55 am75 °FPartly sunny.6 mph57%29.90 "Hg10 mi
8:35 am75 °FOvercast.5 mph57%29.89 "Hg10 mi
7:55 am73 °FOvercast.3 mph53%29.88 "Hg10 mi
7:35 am73 °FOvercast.No wind53%29.88 "Hg10 mi
Weather by CustomWeather, © 2017

See weather overviewHow to use our weather pages